Regional Weather Roundup
Issued by NWS Grand Forks, ND

Home | Current Version | Previous Version | Graphics & Text | Print | Product List | Glossary On
Versions: 1 2 3 4 5 6 7 8 9 10 11 12 13 14 15 16 17 18 19 20 21 22 23 24 25 26 27 28 29 30 31 32 33 34 35 36 37 38 39 40 41 42 43 44 45 46 47 48 49 50
682
ASUS43 KFGF 221910
RWRFGF
PRAIRIE TO PINES  WEATHER ROUNDUP
NATIONAL WEATHER SERVICE EASTERN NORTH DAKOTA/GRAND FORKS ND
200 PM CDT SUN OCT 22 2017

 **SATELLITE DATA USED TO AUGMENT SKY COVER AT AUTOMATED STATIONS**
 *****  WEATHER ACROSS EASTERN NORTH DAKOTA  *****

CITY           SKY/WX    TMP DP  RH WIND       PRES   REMARKS
GRAND FORKS    PTSUNNY   64  28  25 SW22G33   29.74F
GRAND FRKS AFB FAIR      63  27  26 SW20G29   29.74F
DEVILS LAKE    FAIR      56  32  40 SW18      29.70F
FARGO          FAIR      62  30  29 SW18G30   29.81F
WAHPETON ARPT  NOT AVBL
$$

 ***** WEATHER ACROSS CENTRAL AND WESTERN NORTH DAKOTA  *****

CITY           SKY/WX    TMP DP  RH WIND       PRES   REMARKS
BISMARCK       CLOUDY    61  23  23 SW25      29.74F
MINOT          CLOUDY    54  27  35 S15G22    29.63F
JAMESTOWN      FAIR      60  23  24 SW23G31   29.77F
MINOT AFB      NOT AVBL
GARRISON         N/A     55  27  34 SW12      29.68F
WILLISTON      CLOUDY    50  36  58 S8        29.62F
DICKINSON      CLOUDY    60  34  37 W20       29.69F
HETTINGER      CLOUDY    61  26  26 SW20      29.78F
$$

 *****  OTHER AIRPORT OBSERVATIONS IN OUR AREA  *****

CITY           SKY/WX    TMP DP  RH WIND       PRES   REMARKS
WALHALLA       FAIR     N/A N/A N/A SW13G23   29.67F
GRAFTON AIRPOR NOT AVBL
VALLEY CITY AR NOT AVBL
CANDO          MOCLDY    59  25  27 SW16G24   29.68F
CAVALIER APRT  FAIR      59  30  33 SW12G24   29.68F
GWINNER        CLEAR     63  30  29 SW16G26   29.83F
SHEYENNE NWR     N/A     63  28  26 SW20      29.95S
ROLLA          FAIR      50  28  43 SW13      29.64F
 ***** THE ABOVE OBSERVATIONS ARE NON NWS ARE NOT QUALITY
       CONTROLLED AND MAY MIS-REPORT RAIN FOR SNOW...
$$

  *****  WEATHER ACROSS NORTHERN MINNESOTA  *****

CITY           SKY/WX    TMP DP  RH WIND       PRES   REMARKS
FLAG ISLAND    FAIR      54  30  40 W16G31    29.68S
WARROAD        FAIR      55  36  47 W18G24    29.73F
ROSEAU         FAIR      57  36  44 SW14G24   29.72F
HALLOCK        FAIR      63  27  25 SW22G28   29.70F
THF RVR FALLS  FAIR      61  29  29 SW20G26   29.77F
BAUDETTE       FAIR      57  31  37 SW16G31   29.74F
WASKISH        FAIR      55  37  50 SW14      29.79F
CROOKSTON      FAIR      63  28  27 SW22G32   29.77F
STEPHEN NDAWN    N/A     61  28  29 SW17        N/A
GREENBUSH NDAW   N/A     61  32  33 SW18        N/A
$$
  *****  WEATHER ACROSS CENTRAL AND WEST MINNESOTA  *****

CITY           SKY/WX    TMP DP  RH WIND       PRES   REMARKS
FOSSTON        FAIR      61  28  29 SW21G26   29.81F
BEMIDJI        FAIR      58  30  35 SW17      29.82F
PARK RAPIDS    FAIR      60  31  33 W20G25    29.85F
ELBOW LAKE     FAIR      62  31  31 SW16G24   29.89F
WADENA         FAIR      57  34  41 SW13G20   29.87F
DETROIT LAKES  FAIR      59  32  36 SW15      29.86F
MOORHEAD       FAIR      63  28  27 SW22      29.84F
FERGUS FALLS   FAIR      63  30  29 W21G28    29.87F
MORRIS MN      FAIR      63  32  31 SW16G25   29.90F
STAPLES        FAIR      59  28  31 SW13G20   29.90F
$$
  *****  WEATHER ELSEWHERE ACROSS MINNESOTA  *****

CITY           SKY/WX    TMP DP  RH WIND       PRES   REMARKS
DULUTH         FAIR      57  35  43 W17       29.86F
INTRNTL FALLS  FAIR      58  33  39 SW12G24   29.76F
ELY            FAIR      55  34  44 W13       29.80F
CLOQUET        FAIR      57  28  33 W15G21    29.87F
WHEATON        FAIR      64  25  22 SW14G23   29.90F
BRAINERD       FAIR      61  29  29 SW17G25   29.90F
HIBBING        FAIR      56  30  37 W9G22     29.84F
ALEXANDRIA     FAIR      60  33  36 SW13      29.92F
SAINT CLOUD    FAIR      61  35  37 W17G28    29.94F
MINNEAPOLIS    FAIR      62  36  37 W13       29.97F
$$

  *****  WEATHER ACROSS SOUTH DAKOTA  *****

CITY           SKY/WX    TMP DP  RH WIND       PRES   REMARKS
SIOUX FALLS    FAIR      64  33  31 SW16G22   29.97F
BROOKINGS      FAIR      62  29  28 SW20      29.94F
WATERTOWN      FAIR      62  30  29 SW22G28   29.89F
HURON          FAIR      65  31  28 SW17G24   29.90F
SISSETON         N/A     64  30  27 SW21G28   29.87F
ABERDEEN       FAIR      66  24  20 S21G28    29.85F
MITCHELL       FAIR      66  27  23 SW16G24   29.93F
PIERRE         FAIR      64  28  25 SW15      29.87F
MOBRIDGE       CLOUDY    62  30  29 S16G22    29.80F
RAPID CITY     FAIR      69  28  21 SW17      29.87F
$$

  *****  SOME WEATHER IN NEARBY STATES *****

CITY           SKY/WX    TMP DP  RH WIND       PRES   REMARKS
GLASGOW MT     FAIR      61  38  42 W29       29.57F
GREAT FALLS MT FAIR      59  34  39 W40G58    29.75S
CHEYENNE WY    FAIR      58  24  27 W24G32    30.13F
SCOTTSBLUFF NE FAIR      64  29  26 W21G32    30.02F
OMAHA NE       FAIR      66  31  27 VRB6      30.06F
DES MOINES IA  FAIR      64  38  38 NW13      30.06F
DAVENPORT IA   LGT RAIN  52  48  86 N8        30.05R
CHICAGO IL     LGT RAIN  68  62  81 SW15G21   29.90F
EAU CLAIRE WI  FAIR      55  41  59 W9        29.97F
LA CROSSE WI   FAIR      56  43  61 NW5       30.00S
$$

  *****  SOME NATIONAL WEATHER *****

CITY           SKY/WX    TMP DP  RH WIND       PRES   REMARKS
LA GUARDIA NY  PTSUNNY   74  39  28 S13       30.36F
RALEIGH NC     FAIR      78  55  44 VRB5      30.30F
ATLANTA GA     PTSUNNY   77  64  64 E10       30.17F
NEW ORLEANS LA PTSUNNY   70  61  73 NW21G29   30.05F
OKLAHOMA CITY  FAIR      65  39  38 NW12      30.20F
ALBUQUERQUE NM FAIR      59  10  14 SE3       30.40F
SALT LAKE CITY PTSUNNY   64  22  20 S14       30.36F
LOS ANGELES CA FAIR      85  44  23 W7        30.11F
BOISE ID       CLOUDY    55  43  63 SE13      30.28R
SEATTLE WA     PTSUNNY   58  49  72 SW12      30.17R
$$

*** WEATHER ACROSS MANITOBA...SASKATCHEWAN AND ONTARIO ***
                ***ONTARIO***

CITY           SKY/WX    TMP DP  RH WIND       PRES   REMARKS
GERALDTON      LGT RAIN  52  48  87 SW15      29.71R
THUNDER BAY    PTSUNNY   54  39  58 SW14G21   29.78F
SIOUX LOOKOUT  PTSUNNY   50  39  66 W16G31    29.64S
TORONTO        MOSUNNY   72  54  53 S12       30.16F
BIG TROUT LK   PTSUNNY   50  43  76 SW16G24   29.30F
PICKLE LAKE    CLOUDY    46  39  76 SW16G30   29.51S
DRYDEN         PTSUNNY   50  37  62 W24G32    29.66R
KENORA         MOSUNNY   52  34  50 W16G32    29.66R
$$
                *** MANITOBA***

CITY           SKY/WX    TMP DP  RH WIND       PRES   REMARKS
BRANDON        PTSUNNY   50  30  46 SW15      29.58F
DAUPHIN        SUNNY     54  30  40 W13G23    29.52F
ISLAND LAKE    NOT AVBL
PILOT MOUND      N/A     55  28  35 SW20        N/A
THE PAS        PTSUNNY   39  32  75 W20G28    29.44S
THOMPSON       LGT SNOW  34  34 100 W13G21    29.17S WCI  25
WINNIPEG       MOSUNNY   57  32  38 SW20G29   29.63F
LYNN LAKE      LGT SNOW  34  32  93 NW15G22   29.31R WCI  24
CHURCHILL      CLOUDY    37  37 100 N12       28.97F FOG
GILLAM         LGT RAIN  39  37  93 W14G21    29.04F
$$
                ***SASKATCHEWAN***

CITY           SKY/WX    TMP DP  RH WIND       PRES   REMARKS
ESTEVAN        LGT RAIN  45  37  76 S12G17    29.55F
KINDERSLEY     MOSUNNY   50  32  50 W16G24    29.41R
LLOYDMINSTER   CLOUDY    37  32  81 W6        29.43R
PRINCE ALBERT  CLOUDY    36  36 100 E5        29.48S FOG
REGINA         MOSUNNY   55  36  47 SW12      29.42F
YORKTON        LGT RAIN  41  36  81 S8        29.50F
N. BATTLEFORD  PTSUNNY   37  34  87 CALM      29.46R
LA RONGE       CLOUDY    36  34  93 NW7       29.51S
SASKATOON      LGT RAIN  39  37  93 E5        29.43S
SWIFT CURRENT  SUNNY     57  34  41 W29G39    29.43R
$$
NOTE: THESE ARE AUTOMATED STATIONS WITH LIMITED QUALITY CONTROL
      "FAIR" INDICATES FEW OR NO CLOUDS BELOW 12,000 FEET WITH NO
      SIGNIFICANT WEATHER AND/OR OBSTRUCTIONS TO VISIBILITY.
      SKY/WX - SKY CONDITION AND SIGNIFICANT WEATHER.
      TMP - AIR TEMPERATURE.    DP   - DEWPOINT TEMPERATURE.
      RH  - RELATIVE HUMIDITY.  PRES - PRESSURE.
      HX  - HEAT INDEX.         WCI  - WIND CHILL INDEX.
$




USA.gov is the U.S. government's official web portal to all federal, state and local government web resources and services.